Location: Unspecified
(43.4680°N, 87.1740°E)
Time: 21:47:00
(UTC+00:00)

Spot 4 Rocket - Pass Details

Date: 17 April 2021
Orbit: 776 x 781 km, 98.7° (Epoch: 12 May)

Event Time Altitude Azimuth Distance (km) Brightness Sun altitude
Rises 22:15:21 0° 8° (N) 3,277 7.8 -12.4°
Reaches altitude 10° 22:17:43 10° 4° (N) 2,344 7.0 -12.0°
Maximum altitude 22:22:42 50° 290° (WNW) 990 4.3 -11.2°
Drops below altitude 10° 22:27:38 10° 216° (SW) 2,326 6.0 -10.4°
Enters shadow 22:27:44 10° 216° (SW) 2,361 6.0 -10.4°
